Weather Service Report


250 
ASUS43 KOAX 301302
RWRNE 

WEATHER ROUNDUP FOR NEBRASKA
NATIONAL WEATHER SERVICE OMAHA NE
800 AM CDT SAT JUL 30 2016

NOTES: SATELLITE DATA IS BEING USED TO AUGMENT CLOUD COVER ABOVE
       12000 FEET.
       "FAIR" INDICATES FEW OR NO CLOUDS BELOW 12,000 FEET WITH NO
       SIGNIFICANT WEATHER AND/OR OBSTRUCTIONS TO VISIBILITY.

  * THESE STATIONS DO NOT REPORT WEATHER SUCH AS RAIN...SNOW OR FOG.
   
NEZ001>004-019>022-054>056-301400-
NEBRASKA PANHANDLE
  
CITY           SKY/WX    TMP DP  RH WIND       PRES   REMARKS
SCOTTSBLUFF    SUNNY     62  59  90 NE3       30.03F                  
ALLIANCE       CLOUDY    59  58  96 SW5       30.03R                  
CHADRON        MOSUNNY   62  57  83 CALM      29.96F                  
KIMBALL        SUNNY     63  61  93 SW12      30.07S                  
SIDNEY         CLOUDY    63  61  93 N9        30.06R                  
$$
 
NEZ057>060-069>072-079>082-301400-
SOUTHWEST NEBRASKA
  
CITY           SKY/WX    TMP DP  RH WIND       PRES   REMARKS
NORTH PLATTE   SUNNY     64  63  96 E6        30.02R                  
IMPERIAL       CLOUDY    67  62  84 S7        30.01R                  
LEXINGTON      SUNNY     66  63  90 E3        30.02R                  
MCCOOK         SUNNY     67  64  90 CALM      29.99F                  
OGALLALA       SUNNY     66  63  88 E6        30.00F                  
$$
 
NEZ005>010-023>029-035>040-094-301400-
NORTH CENTRAL NEBRASKA
  
CITY           SKY/WX    TMP DP  RH WIND       PRES   REMARKS
VALENTINE      PTSUNNY   68  59  73 S15       30.01R                  
AINSWORTH      SUNNY     65  59  79 S10       30.02S                  
BROKEN BOW     CLOUDY    63  62  97 E9        30.05R                  
O'NEILL        LGT RAIN  64  61  92 S7        30.04S                  
ORD            HVY RAIN  63  61  93 N3        30.06R FOG              
THEDFORD       CLOUDY    64  63  97 E8        30.05S FOG              
$$
 
NEZ041-046>049-061>064-073>077-083>087-301400-
SOUTH CENTRAL NEBRASKA
  
CITY           SKY/WX    TMP DP  RH WIND       PRES   REMARKS
GRAND ISLAND   TSTM      63  61  93 SE23G29   30.01S FOG              
AURORA         LGT RAIN  63  63  99 E7        30.03S                  
HASTINGS       SUNNY     65  60  84 SE6       30.03R                  
HEBRON         CLOUDY    65  62  90 SE5       30.03R                  
HOLDREGE       CLOUDY    64  62  91 SE5       30.02R                  
KEARNEY *      PTSUNNY   64  63  94 SE8       30.03R                  
YORK           LGT RAIN  64  63  94 E5        30.04S                  
$$
 
NEZ011>018-030>034-042>045-301400-
NORTHEAST NEBRASKA
  
CITY           SKY/WX    TMP DP  RH WIND       PRES   REMARKS
NORFOLK        CLOUDY    62  60  93 E3        30.04S                  
ALBION         LGT RAIN  62  60  93 S7        30.04F                  
BLAIR          SUNNY     65  63  93 CALM      30.04R                  
FREMONT        MOSUNNY   65  63  92 CALM      30.04S                  
TEKAMAH        MOSUNNY   62  60  93 N3        30.04R                  
WAYNE          PTSUNNY   61  60  97 CALM      30.05S                  
$$

NEZ050>053-065>068-078-088>093-301400-
SOUTHEAST NEBRASKA
  
CITY           SKY/WX    TMP DP  RH WIND       PRES   REMARKS
LINCOLN        SUNNY     67  62  84 CALM      30.04S                  
OMAHA EPPLEY   MOSUNNY   65  61  87 CALM      30.05R                  
BEATRICE       SUNNY     64  62  92 CALM      30.03S                  
FALLS CITY     MOSUNNY   65  63  93 CALM      30.02S                  
NEBRASKA CITY  MOSUNNY   64  64 100 CALM      30.04S                  
PLATTSMOUTH    SUNNY     65  65  99 CALM      30.04R                  
$$

NEZ044-045-051>053-067-301400-
OMAHA AREA
  
CITY           SKY/WX    TMP DP  RH WIND       PRES   REMARKS
OMAHA EPPLEY   MOSUNNY   65  61  87 CALM      30.05R                  
BLAIR          SUNNY     65  63  93 CALM      30.04R                  
FREMONT        MOSUNNY   65  63  92 CALM      30.04S                  
MILLARD        SUNNY     67  64  89 CALM      30.03S                  
PLATTSMOUTH    SUNNY     65  65  99 CALM      30.04R                  
WAHOO          FAIR      64  62  95 CALM      30.04S                  
$$
  

Return to Home page


Western Regional Climate Center, wrcc@dri.edu